Location: Unspecified
(43.4354°N, 0.0000°E)
Time: 22:47:08
(UTC+00:00)

S-56A Canister/Altair - Pass Details

Date: 27 June 2019
Orbit: 632 x 2500 km, 38.9° (Epoch: 18 July)

Event Time Altitude Azimuth Distance (km) Brightness Sun altitude
Rises 12:45:05 0° 216° (SW) 6,037 12.4 68.1°
Reaches altitude 10° 12:49:46 10° 208° (SSW) 4,865 12.1 67.7°
Maximum altitude 13:01:00 34° 151° (SSE) 2,759 11.1 66.6°
Drops below altitude 10° 13:09:20 10° 91° (E) 3,596 10.9 65.7°
Sets 13:12:13 0° 82° (E) 4,324 11.2 65.4°
